Regional Weather Roundup
Issued by NWS

Home | Current Version | Previous Version | Text Only | Print | Product List | Glossary On
Versions: 1 2 3 4 5 6 7 8 9 10 11 12 13 14 15 16 17 18 19 20 21 22 23 24 25 26 27 28 29 30 31 32 33 34 35 36 37 38 39 40 41 42 43 44 45 46 47 48 49 50
000
ASUS44 KFWD 201815
RWRTX
NORTH TEXAS HOURLY WEATHER ROUNDUP
NATIONAL WEATHER SERVICE FORT WORTH TX
1200 PM CST MON FEB 20 2017

NOTE: "FAIR" INDICATES FEW OR NO CLOUDS BELOW 12,000 FEET WITH NO
SIGNIFICANT WEATHER AND/OR OBSTRUCTIONS TO VISIBILITY.

TXZ118-119-201900-
DALLAS/FORT WORTH METROPLEX

CITY           SKY/WX    TMP DP  RH WIND       PRES   REMARKS
DFW AIRPORT    CLOUDY    61  58  90 S13       29.94F
6HR MIN TEMP:  58; 6HR MAX TEMP:  61; 6HR PCP: TRACE;

DALLAS LOVE    CLOUDY    61  57  87 SW9       29.97F
6HR MIN TEMP:  58; 6HR MAX TEMP:  61; 6HR PCP:  0.01;

FTW MEACHAM    CLOUDY    61  55  81 S16       29.94F
6HR MIN TEMP:  58; 6HR MAX TEMP:  61; 6HR PCP: TRACE;

DAL-EXECUTIVE  CLOUDY    60  58  92 VRB6      29.96F
6HR MIN TEMP:  57; 6HR MAX TEMP:  60; 6HR PCP:  0.03;

FTW-ALLIANCE   CLOUDY    60  56  86 S10       29.93S
6HR MIN TEMP:  55; 6HR MAX TEMP:  60; 6HR PCP: TRACE;

FTW-NAS-JRB    CLOUDY    62  57  83 S14       29.96F
6HR MIN TEMP:  58; 6HR MAX TEMP:  62;

FTW-SPINKS     CLOUDY    61  57  88 SE8       29.96S
ARLINGTON      CLOUDY    60  56  86 S12       29.96F
6HR MIN TEMP:  57; 6HR MAX TEMP:  60; 6HR PCP:  0.01;

GRAND PRAIRIE  CLOUDY    59  59 100 S6        29.98F
ADDISON        CLOUDY    61  54  77 SW8G15    29.97F
MESQUITE       CLOUDY    59  57  94 E16       29.93F
LANCASTER      CLOUDY    59  57  91 SW9       29.99S
6HR MIN TEMP:  56; 6HR MAX TEMP:  59; 6HR PCP:  0.06;

$$

TXZ091>094-102>105-117-120-121-131>134-201900-
NORTH CENTRAL TEXAS

CITY           SKY/WX    TMP DP  RH WIND       PRES   REMARKS
SHRMAN/DENISON CLOUDY    59  56  90 S16       29.93F
6HR MIN TEMP:  56; 6HR MAX TEMP:  59;

GAINESVILLE    CLOUDY    58  55  91 S14G21    29.97R
6HR MIN TEMP:  54; 6HR MAX TEMP:  58;

BOWIE          CLOUDY    59  58  94 S10       29.93F
6HR MIN TEMP:  55; 6HR MAX TEMP:  60;

BRIDGEPORT     PTSUNNY   61  55  81 S12       29.95F
6HR MIN TEMP:  55; 6HR MAX TEMP:  61;

DECATUR        CLOUDY    59  55  87 S15       29.93F
6HR MIN TEMP:  55; 6HR MAX TEMP:  59;

DENTON         CLOUDY    59  57  93 S14G22    29.95S
6HR MIN TEMP:  56; 6HR MAX TEMP:  59;

MCKINNEY       CLOUDY    60  58  92 E8        29.92F
6HR MIN TEMP:  56; 6HR MAX TEMP:  60; 6HR PCP:  0.02;

BONHAM         CLOUDY    59  57  94 S12       29.97R
GREENVILLE     CLOUDY    61  55  82 S10       30.00R
ROCKWALL       DRIZZLE   60  58  96 SE8       29.94F
6HR MIN TEMP:  57; 6HR MAX TEMP:  60; 6HR PCP:  0.08;

TERRELL        LGT RAIN  60  57  89 S6        29.99R
6HR MIN TEMP:  57; 6HR MAX TEMP:  60; 6HR PCP:  0.28;

WAXAHACHIE     CLOUDY    58  58 100 S8        29.98R
6HR MIN TEMP:  56; 6HR MAX TEMP:  58; 6HR PCP:  0.05;

CLEBURNE       PTSUNNY   59  59 100 S14       30.01R
GRANBURY       CLOUDY    63  57  81 SE14      29.98F
6HR MIN TEMP:  57; 6HR MAX TEMP:  63;

$$

TXZ083>090-098>101-113>116-127>130-139>142-154-155-201900-
WESTERN NORTH TEXAS

CITY           SKY/WX    TMP DP  RH WIND       PRES   REMARKS
WICHITA FALLS  MOSUNNY   62  48  60 S12       29.89F
6HR MIN TEMP:  54; 6HR MAX TEMP:  62;

WF-KICKAPOO    MOSUNNY   61  49  64 S14       29.91S
6HR MIN TEMP:  54; 6HR MAX TEMP:  62;

VERNON         SUNNY     63  40  43 CALM      29.89R
6HR MIN TEMP:  53; 6HR MAX TEMP:  67;

ABILENE        SUNNY     66  39  37 W17       29.94F
6HR MIN TEMP:  51; 6HR MAX TEMP:  66;

ABILENE-DYESS  SUNNY     66  42  41 NW12G20   29.93F
6HR MIN TEMP:  49; 6HR MAX TEMP:  66;

GRAHAM         CLOUDY    63  50  63 SW5       29.91F
BRECKENRIDGE   CLOUDY    65  44  46 W9        29.93F
6HR MIN TEMP:  55; 6HR MAX TEMP:  65;

CISCO          CLOUDY    63  45  51 W9        29.95F
MINERAL WELLS  PTSUNNY   60  56  86 S10       29.93F
6HR MIN TEMP:  54; 6HR MAX TEMP:  60;

STEPHENVILLE   CLOUDY    61  55  82 S6        30.00R
6HR MIN TEMP:  55; 6HR MAX TEMP:  61;

COMANCHE       CLOUDY    64  52  67 SW13      29.97S
6HR MIN TEMP:  53; 6HR MAX TEMP:  64;

BROWNWOOD      CLOUDY    63  46  55 W8        29.98S
COLEMAN        SUNNY     66  43  42 W9        29.98S
6HR MIN TEMP:  54; 6HR MAX TEMP:  66;

$$

TXZ143>147-156>162-174-175-201900-
CENTRAL TEXAS

CITY           SKY/WX    TMP DP  RH WIND       PRES   REMARKS
WACO           CLOUDY    60  58  92 S9        29.99F
6HR MIN TEMP:  57; 6HR MAX TEMP:  60; 6HR PCP:  0.11;

WACO-MCGREGOR  CLOUDY    61  57  88 S9        29.98F
6HR MIN TEMP:  57; 6HR MAX TEMP:  61; 6HR PCP:  0.04;

HILLSBORO      CLOUDY    59  58  95 S8        30.01S
6HR MIN TEMP:  57; 6HR MAX TEMP:  59; 6HR PCP:  0.08;

CORSICANA      CLOUDY    60  59  96 E16       29.95F
6HR MIN TEMP:  57; 6HR MAX TEMP:  60; 6HR PCP:  0.33;

MEXIA          CLOUDY    59  58  97 W8G20     29.96R
6HR MIN TEMP:  56; 6HR MAX TEMP:  59; 6HR PCP:  0.42;

HEARNE         CLOUDY    60  59  99 W7        30.01R
CAMERON        CLOUDY    60  58  92 CALM      29.99F
6HR MIN TEMP:  58; 6HR MAX TEMP:  60; 6HR PCP:  0.33;

TEMPLE         PTSUNNY   60  57  89 SE3       29.97F
6HR MIN TEMP:  57; 6HR MAX TEMP:  60; 6HR PCP:  0.05;

KILLEEN        CLOUDY    58  57  97 S8        29.99F
6HR MIN TEMP:  56; 6HR MAX TEMP:  58; 6HR PCP:  0.01;

KILLEEN-SKYLRK CLOUDY    61  58  90 SW8       29.99F
6HR MIN TEMP:  57; 6HR MAX TEMP:  61; 6HR PCP:  0.03;

FORT HOOD      CLOUDY    58  57  97 SW9       29.96F
6HR MIN TEMP:  55; 6HR MAX TEMP:  58; 6HR PCP:  0.03;

GATESVILLE     CLOUDY    59  59 100 S6        30.00F
HAMILTON       CLOUDY    60  60 100 S12       29.99R
6HR MIN TEMP:  56; 6HR MAX TEMP:  60;

LAMPASAS       PTSUNNY   62  58  87 S5        29.99F
6HR MIN TEMP:  55; 6HR MAX TEMP:  62;

$$

TXZ095>097-106>112-122>126-135>138-148>153-164>167-201900-
EAST TEXAS

CITY           SKY/WX    TMP DP  RH WIND       PRES   REMARKS
PARIS          MOSUNNY   61  55  82 SE10      29.97R
6HR MIN TEMP:  55; 6HR MAX TEMP:  61; 6HR PCP:  0.28;

SULPHUR SPRNGS LGT RAIN  60  60 100 SE13G18   29.98S
6HR MIN TEMP:  58; 6HR MAX TEMP:  60; 6HR PCP:  0.28;

MOUNT PLEASANT CLOUDY    60  60 100 SE8       30.01F
6HR MIN TEMP:  58; 6HR MAX TEMP:  60; 6HR PCP:  0.52;

GILMER         LGT RAIN  60  59  98 SE6       30.02F
6HR MIN TEMP:  56; 6HR MAX TEMP:  60; 6HR PCP:  0.48;

MINEOLA        LGT RAIN  59  59 100 SE8G17    29.98F
TYLER          LGT RAIN  61  50  67 SE10      30.00F
6HR MIN TEMP:  58; 6HR MAX TEMP:  61; 6HR PCP:  0.60;

LONGVIEW       LGT RAIN  61  61 100 SE5       30.02F FOG
6HR MIN TEMP:  58; 6HR MAX TEMP:  61; 6HR PCP:  0.36;

MARSHALL       CLOUDY    60  58  92 CALM      30.06F
6HR MIN TEMP:  57; 6HR MAX TEMP:  60; 6HR PCP:  0.24;

ATHENS         LGT RAIN  59  59 100 SE6       29.99S
JACKSONVILLE   LGT RAIN  59  59 100 S3        30.05F
HENDERSON      LGT RAIN N/A N/A N/A SE3       30.04F
CENTER         CLOUDY    66  64  96 N9        30.03F
6HR MIN TEMP:  63; 6HR MAX TEMP:  67; 6HR PCP:  0.05;

NACOGDOCHES    CLOUDY    61  57  88 SE3       30.04S
6HR MIN TEMP:  57; 6HR MAX TEMP:  61;

LUFKIN         RAIN      60  59  96 NE3       30.04F FOG
6HR MIN TEMP:  58; 6HR MAX TEMP:  60;

$$

SUPPLEMENTAL OBSERVATIONS (CENTRAL)

CITY           SKY/WX    TMP DP  RH WIND       PRES   REMARKS
DENISON DAM      N/A     59  55  88 S9          N/A
CADDO GRASSLND   N/A     61  57  88 S10         N/A
PAT MAYSE LAKE   N/A     59  57  94 S3          N/A
GREENVILLE       N/A     61  57  88 S9          N/A
CEDAR HILL       N/A     61  57  88 S6          N/A
ATHENS           N/A     61  57  88 SE10        N/A
LAKE LIMESTONE   N/A     61  57  88 E15G26      N/A
MCGREGOR         N/A     61  59  94 SE5         N/A
TEMPLE           N/A     61  57  88 S8          N/A



USA.gov is the U.S. government's official web portal to all federal, state and local government web resources and services.